Weather History for KCTY - February, 2013

Change the Weather History Date:

Monday, February 18, 2013

  Actual Average Record
Temperature  
Mean Temperature 45 °F 57 °F  
Max Temperature 67 °F 71 °F - ()
Min Temperature 22 °F 44 °F - ()
Degree Days  
Heating Degree Days 20 8  
Month to date heating degree days 169 167  
Since 1 July heating degree days 775 1045  
Cooling Degree Days 0 0  
Month to date cooling degree days 21 12  
Year to date cooling degree days 72 23  
Moisture  
Dew Point 25 °F    
Average Humidity 56    
Maximum Humidity 88    
Minimum Humidity 19    
Precipitation  
Precipitation 0.00 in 0.13 in - ()
Month to date precipitation 1.38 1.78  
Year to date precipitation 1.96 5.82  
Sea Level Pressure  
Sea Level Pressure 30.33 in    
Wind  
Wind Speed 2 mph (SE)    
Max Wind Speed 13 mph    
Max Gust Speed 23 mph    
T = Trace of Precipitation, MM = Missing Value Source: NWS Daily Summary

Daily Weather History Graph

Daily Weather History Graph

Search for Another Location

Airport or City:

Trip Planner

Search our weather history database for the weather conditions in past years. The results will help you decide how hot, cold, wet, or windy it might be!

Date:

Astronomy

Feb. 18, 2013 Rise Set
Actual Time 7:08 AM EST 6:24 PM EST
Civil Twilight 6:44 AM EST 6:48 PM EST
Nautical Twilight 6:16 AM EST 7:16 PM EST
Astronomical Twilight 5:49 AM EST 7:43 PM EST
Moon 12:21 PM EST (2/18) 1:35 AM EST (2/18)
Length of Visible Light 12h 03m
Length of Day
11h 15m
First Quarter, 58% of the Moon is Illuminated
Feb 18
First Quarter
Feb 25
Full
Mar 4
Last Quarter
Mar 11
New
Mar 19
First Quarter

Hourly Weather History & Observations

Time (EST) Temp. Windchill Dew Point Humidity Pressure Visibility Wind Dir Wind Speed Gust Speed Precip Events Conditions
12:53 AM 27.0 °F - 23.0 °F 85% 30.38 in - Calm Calm - N/A   Unknown
1:53 AM 26.1 °F - 21.9 °F 84% 30.37 in - Calm Calm - N/A   Unknown
2:53 AM 26.1 °F - 21.0 °F 81% 30.36 in - Calm Calm - N/A   Unknown
3:53 AM 25.0 °F - 21.0 °F 85% 30.35 in - Calm Calm - N/A   Unknown
4:53 AM 24.1 °F - 19.9 °F 84% 30.35 in - Calm Calm - N/A   Unknown
5:53 AM 24.1 °F - 19.0 °F 81% 30.37 in - Calm Calm - N/A   Unknown
6:53 AM 23.0 °F - 19.0 °F 85% 30.37 in - Calm Calm - N/A   Unknown
7:53 AM 27.0 °F - 21.9 °F 81% 30.39 in - Calm Calm - N/A   Unknown
8:53 AM 42.1 °F 40.2 °F 27.0 °F 55% 30.40 in - Variable 3.5 mph - N/A   Unknown
9:53 AM 50.0 °F - 18.0 °F 28% 30.41 in - ESE 6.9 mph - N/A   Unknown
10:53 AM 54.0 °F - 17.1 °F 23% 30.41 in - Calm Calm - N/A   Unknown
11:53 AM 57.0 °F - 18.0 °F 22% 30.38 in - Variable 5.8 mph - N/A   Unknown
12:53 PM 60.1 °F - 18.0 °F 20% 30.35 in - ESE 11.5 mph 16.1 mph N/A   Unknown
1:53 PM 62.1 °F - 21.0 °F 21% 30.32 in - South 9.2 mph 16.1 mph N/A   Unknown
2:53 PM 64.0 °F - 28.0 °F 26% 30.30 in - SSW 8.1 mph - N/A   Unknown
3:53 PM 64.9 °F - 28.9 °F 26% 30.29 in - Variable 4.6 mph - N/A   Unknown
4:53 PM 64.9 °F - 28.9 °F 26% 30.27 in - Variable 4.6 mph - N/A   Unknown
5:53 PM 63.0 °F - 28.9 °F 28% 30.27 in - ESE 4.6 mph - N/A   Unknown
6:53 PM 51.1 °F - 34.0 °F 52% 30.27 in - Calm Calm - N/A   Unknown
7:53 PM 46.9 °F - 34.0 °F 61% 30.25 in - Calm Calm - N/A   Unknown
8:53 PM 43.0 °F - 34.0 °F 71% 30.25 in - Calm Calm - N/A   Unknown
9:53 PM 42.1 °F - 33.1 °F 70% 30.25 in - Calm Calm - N/A   Unknown
10:53 PM 39.9 °F - 33.1 °F 77% 30.26 in - Calm Calm - N/A   Unknown
11:53 PM 41.0 °F - 34.0 °F 76% 30.25 in - Calm Calm - N/A   Unknown